ZTF彗星

P/2022 P2 ( ZTF )

English version
Home page
Updated on December 19, 2023

---------------------------------------------------------------------

・ プロフィール

発見日 2022年8月15日
発見光度 18.5等
発見者 Zwicky Transient Facility

・ 写真集

・ 軌道要素

Epoch 2023 Sept. 13.0 TT = JDT 2460200.5
T 2022 July 10.87897 TT                                 Rudenko
q   1.9826051            (2000.0)            P               Q
n   0.10370220     Peri.  137.63308     +0.34601407     -0.91648532
a   4.4868759      Node   291.21980     +0.79269617     +0.40006832
e   0.5581324      Incl.   12.44057     +0.50190342     -0.00003150
P   9.50
>From 167 observations 2022 Aug. 9-2023 Mar. 27, mean residual 0".8.

・ 光度変化

        m1 =  13.5 + 5 logΔ + 10.0 log r           [   , 30]  (              〜2022年 8月 9日)
        m1 = -15   + 5 logΔ + 50   log r(t + 400)  [ 30,142]  (2022年 8月 9日〜2022年11月29日)
        m1 =  13.5 + 5 logΔ + 10.0 log r           [142,   ]  (2022年11月29日〜              )

---------------------------------------------------------------------

軌道要素はM.P.E.C. 2023-X256に掲載されたものです。
光度グラフはComet for Windowsで作成したものです。

---------------------------------------------------------------------

Copyright(C) Seiichi Yoshida (comet@aerith.net). All rights reserved.